Weather History for KFAR - December, 2011

Change the Weather History Date:

Monday, December 19, 2011

  Actual Average Record
Temperature  
Mean Temperature 24 °F 13 °F  
Max Temperature 33 °F 21 °F 46 °F (1923)
Min Temperature 14 °F 5 °F -32 °F (1883)
Degree Days  
Heating Degree Days 41 52  
Month to date heating degree days 793 932  
Since 1 July heating degree days 2339 2894  
Cooling Degree Days 0 0  
Month to date cooling degree days 0 0  
Year to date cooling degree days 694 551  
Moisture  
Dew Point 17 °F    
Average Humidity 67    
Maximum Humidity 80    
Minimum Humidity 54    
Precipitation  
Precipitation 0.00 in 0.03 in 0.29 in (1990)
Month to date precipitation 0.03 0.50  
Year to date precipitation 23.62 22.28  
Snow  
Snow 0.00 in 0.30 in 3.60 in (1990)
Month to date snowfall 0.4 6.5  
Since 1 July snowfall 1.2 15.1  
Snow Depth 0.00 in    
Sea Level Pressure  
Sea Level Pressure 30.23 in    
Wind  
Wind Speed 9 mph (NW)    
Max Wind Speed 23 mph    
Max Gust Speed 30 mph    
Visibility 10 miles    
Events      
T = Trace of Precipitation, MM = Missing Value Source: NWS Daily Summary

Daily Weather History Graph

Daily Weather History Graph

Search for Another Location

Airport or City:

Trip Planner

Search our weather history database for the weather conditions in past years. The results will help you decide how hot, cold, wet, or windy it might be!

Date:

Astronomy

Dec. 19, 2011 Rise Set
Actual Time 8:08 AM CST 4:40 PM CST
Civil Twilight 7:33 AM CST 5:15 PM CST
Nautical Twilight 6:54 AM CST 5:54 PM CST
Astronomical Twilight 6:17 AM CST 6:31 PM CST
Moon 2:05 AM CST (12/19) 12:51 PM CST (12/19)
Length of Visible Light 9h 42m
Length of Day
8h 31m
Waning Crescent, 31% of the Moon is Illuminated
Dec 19
Waning Crescent
Dec 24
New
Jan 1
First Quarter
Jan 9
Full
Jan 16
Last Quarter

Hourly Weather History & Observations

Time (CST) Temp. Windchill Dew Point Humidity Pressure Visibility Wind Dir Wind Speed Gust Speed Precip Events Conditions
12:53 AM 30.9 °F 18.7 °F 21.0 °F 67% 29.99 in 10.0 mi North 19.6 mph 28.8 mph N/A   Overcast
1:08 AM 30.2 °F 16.8 °F 21.2 °F 69% 29.96 in 10.0 mi North 23.0 mph 28.8 mph N/A   Overcast
1:53 AM 30.0 °F 19.1 °F 21.0 °F 69% 30.01 in 10.0 mi North 15.0 mph - N/A   Overcast
2:53 AM 30.0 °F 19.5 °F 19.9 °F 66% 30.06 in 10.0 mi NNW 13.8 mph - N/A   Overcast
3:53 AM 30.0 °F 21.1 °F 21.0 °F 69% 30.09 in 10.0 mi NNW 10.4 mph - N/A   Overcast
4:53 AM 26.1 °F 17.6 °F 19.0 °F 75% 30.12 in 10.0 mi NW 8.1 mph - N/A   Partly Cloudy
5:53 AM 28.0 °F 20.8 °F 19.9 °F 72% 30.14 in 10.0 mi WNW 6.9 mph - N/A   Overcast
6:53 AM 28.9 °F 18.2 °F 19.0 °F 67% 30.19 in 10.0 mi NNW 13.8 mph - N/A   Overcast
7:53 AM 23.0 °F 13.1 °F 16.0 °F 74% 30.22 in 10.0 mi NNW 9.2 mph - N/A   Partly Cloudy
8:13 AM 24.8 °F 14.6 °F 17.6 °F 74% 30.19 in 10.0 mi NNW 10.4 mph - N/A   Mostly Cloudy
8:53 AM 26.1 °F 16.2 °F 17.1 °F 69% 30.25 in 10.0 mi NNW 10.4 mph - N/A   Overcast
9:53 AM 27.0 °F 16.7 °F 18.0 °F 69% 30.28 in 10.0 mi NNW 11.5 mph - N/A   Overcast
10:32 AM 28.4 °F 18.0 °F 17.6 °F 64% 30.26 in 10.0 mi North 12.7 mph - N/A   Scattered Clouds
10:53 AM 28.0 °F 19.3 °F 18.0 °F 66% 30.31 in 10.0 mi North 9.2 mph - N/A   Scattered Clouds
11:53 AM 28.9 °F 21.9 °F 18.0 °F 64% 30.31 in - NNW 6.9 mph - N/A   Overcast
12:40 PM 30.2 °F - 17.6 °F 60% 30.27 in - North - - N/A   Overcast
12:53 PM 30.0 °F 25.2 °F 18.0 °F 61% 30.31 in - NW 4.6 mph - N/A   Overcast
1:18 PM 30.2 °F 25.4 °F 17.6 °F 60% 30.27 in 10.0 mi WNW 4.6 mph - N/A   Overcast
1:32 PM 30.2 °F 24.3 °F 19.4 °F 64% 30.26 in 10.0 mi NW 5.8 mph - N/A   Overcast
1:53 PM 30.9 °F 26.2 °F 19.0 °F 61% 30.30 in 10.0 mi WNW 4.6 mph - N/A   Overcast
2:43 PM 30.2 °F 25.4 °F 17.6 °F 60% 30.26 in 10.0 mi NW 4.6 mph - N/A   Scattered Clouds
2:53 PM 32.0 °F 25.6 °F 18.0 °F 56% 30.30 in 10.0 mi West 6.9 mph - N/A   Mostly Cloudy
3:19 PM 30.2 °F 24.3 °F 17.6 °F 60% 30.26 in 10.0 mi WNW 5.8 mph - N/A   Overcast
3:40 PM 30.2 °F 22.6 °F 17.6 °F 60% 30.26 in 10.0 mi NW 8.1 mph - N/A   Mostly Cloudy
3:53 PM 30.9 °F - 17.1 °F 57% 30.30 in 10.0 mi Calm Calm - N/A   Mostly Cloudy
4:53 PM 27.0 °F 23.0 °F 16.0 °F 63% 30.30 in 10.0 mi NNE 3.5 mph - N/A   Mostly Cloudy
5:53 PM 27.0 °F 23.0 °F 17.1 °F 66% 30.30 in 10.0 mi SE 3.5 mph - N/A   Mostly Cloudy
6:53 PM 21.9 °F 15.7 °F 15.1 °F 75% 30.31 in 10.0 mi SE 4.6 mph - N/A   Clear
7:53 PM 21.9 °F 14.5 °F 15.1 °F 75% 30.29 in 10.0 mi SSE 5.8 mph - N/A   Clear
8:53 PM 19.0 °F 9.0 °F 12.9 °F 77% 30.28 in 10.0 mi South 8.1 mph - N/A   Clear
9:53 PM 17.1 °F 7.6 °F 10.9 °F 77% 30.28 in 10.0 mi South 6.9 mph - N/A   Clear
10:53 PM 16.0 °F 6.3 °F 10.0 °F 77% 30.27 in 10.0 mi South 6.9 mph - N/A   Clear
11:53 PM 17.1 °F 5.8 °F 10.0 °F 74% 30.25 in 10.0 mi South 9.2 mph - N/A   Clear